Location: Waco, TX
(31.5480°N, 97.1670°W)
Time: 02:40:11
(UTC-06:00)

ISS - Pass Details

Date: 10 November 2018
Orbit: 401 x 408 km, 51.6° (Epoch: 20 November)

Event Time Altitude Azimuth Distance (km) Brightness Sun altitude
Rises 23:18:26 0° 222° (SW) 2,296 - -71.3°
Reaches altitude 10° 23:20:30 10° 221° (SW) 1,441 - -71.6°
Maximum altitude 23:23:43 82° 134° (SE) 407 - -72.0°
Drops below altitude 10° 23:26:58 10° 47° (NE) 1,450 - -72.5°
Sets 23:29:03 0° 46° (NE) 2,312 - -72.8°
